Total_Precipitation_Accumulation
1.41 1.33 1.21 1.09 1.08 1.10 1.13 1.20 1.33 1.23 0.97 0.74 0.70 0.72 0.77 0.83 0.94 0.91 0.86 1.03 1.06 1.05 1.08 1.12 1.13 1.07 1.04 1.05 1.10 1.18 1.27 1.34 1.41 1.46 1.47 1.45 1.49 1.60
1.30 1.30 1.25 1.15 1.12 1.14 1.19 1.24 1.32 1.37 1.20 0.87 0.75 0.76 0.86 0.96 1.09 1.00 0.93 1.08 1.06 1.03 1.03 1.02 0.98 0.93 0.91 0.91 0.94 1.01 1.07 1.12 1.21 1.33 1.45 1.52 1.59 1.71
1.21 1.23 1.25 1.22 1.23 1.22 1.27 1.33 1.38 1.44 1.43 1.12 0.92 0.87 0.90 0.92 0.95 0.93 0.88 0.90 0.89 0.98 0.92 0.87 0.83 0.80 0.79 0.79 0.81 0.84 0.88 0.95 1.03 1.14 1.27 1.37 1.41 1.45
1.13 1.18 1.21 1.22 1.27 1.29 1.33 1.37 1.39 1.38 1.37 1.23 1.01 0.90 0.85 0.80 0.80 0.80 0.79 0.76 0.72 0.83 0.81 0.76 0.73 0.71 0.71 0.72 0.72 0.74 0.79 0.85 0.91 0.96 1.02 1.09 1.12 1.15
1.00 1.03 1.03 1.08 1.15 1.19 1.24 1.28 1.28 1.27 1.26 1.17 0.98 0.83 0.76 0.74 0.78 0.78 0.73 0.69 0.64 0.67 0.68 0.65 0.62 0.60 0.61 0.63 0.65 0.67 0.65 0.65 0.67 0.70 0.77 0.87 0.96 1.00
0.89 0.92 0.94 0.98 1.02 1.08 1.15 1.19 1.20 1.20 1.21 1.19 1.09 0.91 0.78 0.72 0.74 0.75 0.72 0.66 0.60 0.55 0.63 0.62 0.59 0.55 0.51 0.49 0.47 0.48 0.50 0.53 0.58 0.62 0.67 0.73 0.81 0.90
0.91 0.96 1.01 1.12 1.12 1.07 1.04 1.03 1.06 1.12 1.14 1.15 1.05 0.91 0.78 0.71 0.70 0.65 0.64 0.65 0.65 0.59 0.59 0.57 0.53 0.51 0.49 0.49 0.46 0.43 0.44 0.51 0.57 0.61 0.68 0.74 0.79 0.85
0.95 0.95 0.98 1.09 1.07 1.04 0.98 0.94 0.96 1.03 1.08 1.04 0.93 0.78 0.62 0.53 0.53 0.60 0.66 0.74 0.74 0.57 0.56 0.57 0.53 0.54 0.48 0.45 0.50 0.46 0.44 0.48 0.53 0.59 0.64 0.68 0.71 0.75
0.93 0.92 0.87 0.84 0.87 0.78 0.82 0.87 0.87 0.87 0.84 0.80 0.77 0.64 0.55 0.51 0.59 0.70 0.71 0.71 0.60 0.47 0.55 0.65 0.59 0.56 0.47 0.47 0.53 0.48 0.46 0.49 0.52 0.55 0.57 0.61 0.67 0.69
0.77 0.76 0.72 0.67 0.65 0.66 0.68 0.73 0.65 0.61 0.60 0.57 0.55 0.52 0.52 0.56 0.65 0.75 0.79 0.82 0.71 0.62 0.63 0.70 0.59 0.53 0.47 0.46 0.53 0.50 0.50 0.53 0.57 0.60 0.62 0.63 0.65 0.70
0.58 0.58 0.58 0.55 0.63 0.72 0.67 0.62 0.55 0.53 0.58 0.61 0.63 0.62 0.68 0.74 0.77 0.83 0.91 1.01 0.91 0.68 0.58 0.58 0.52 0.48 0.48 0.49 0.51 0.57 0.54 0.55 0.58 0.61 0.64 0.67 0.67 0.69
0.41 0.41 0.48 0.49 0.60 0.68 0.61 0.58 0.55 0.46 0.47 0.52 0.55 0.54 0.53 0.59 0.71 0.70 0.77 1.02 0.95 0.71 0.44 0.48 0.52 0.60 0.75 0.52 0.46 0.49 0.55 0.59 0.58 0.57 0.59 0.62 0.68 0.71
0.38 0.37 0.39 0.50 0.55 0.59 0.60 0.52 0.52 0.54 0.51 0.50 0.53 0.53 0.53 0.54 0.57 0.56 0.61 0.87 1.07 0.82 0.41 0.63 0.84 0.72 0.88 0.64 0.44 0.43 0.46 0.51 0.56 0.57 0.57 0.60 0.66 0.77
0.37 0.36 0.39 0.52 0.58 0.58 0.54 0.53 0.59 0.63 0.55 0.56 0.58 0.56 0.53 0.50 0.49 0.49 0.52 0.58 0.68 0.70 0.51 0.77 1.19 0.97 1.08 0.88 0.52 0.42 0.45 0.47 0.51 0.55 0.55 0.66 0.73 0.78
0.40 0.43 0.47 0.52 0.54 0.52 0.52 0.55 0.56 0.53 0.52 0.55 0.53 0.48 0.45 0.47 0.52 0.58 0.60 0.60 0.62 0.59 0.57 0.61 0.86 0.96 1.21 1.19 0.77 0.47 0.47 0.50 0.50 0.56 0.62 0.67 0.72 0.79
0.47 0.47 0.50 0.50 0.49 0.48 0.49 0.50 0.48 0.48 0.52 0.55 0.52 0.50 0.54 0.59 0.61 0.62 0.67 0.67 0.72 0.64 0.56 0.52 0.60 0.91 1.16 0.93 0.91 0.74 0.56 0.61 0.55 0.62 0.69 0.66 0.64 0.71
0.55 0.53 0.49 0.46 0.44 0.42 0.42 0.42 0.44 0.46 0.51 0.51 0.56 0.60 0.60 0.61 0.60 0.59 0.67 0.74 0.76 0.61 0.52 0.50 0.53 0.64 0.81 0.88 0.90 0.68 0.59 0.63 0.67 0.77 0.86 0.83 0.67 0.67
0.66 0.58 0.46 0.41 0.39 0.40 0.41 0.43 0.43 0.45 0.47 0.52 0.58 0.62 0.65 0.65 0.63 0.60 0.65 0.73 0.72 0.58 0.52 0.51 0.60 0.76 0.75 0.65 0.62 0.64 0.66 0.69 0.69 0.74 0.86 1.04 0.83 0.67
0.59 0.47 0.40 0.38 0.39 0.41 0.44 0.47 0.46 0.43 0.49 0.57 0.62 0.65 0.70 0.71 0.71 0.69 0.68 0.71 0.69 0.60 0.55 0.56 0.72 1.09 1.15 0.70 0.41 0.47 0.71 0.80 0.79 0.84 0.90 1.08 1.10 0.83
0.43 0.37 0.36 0.38 0.42 0.46 0.49 0.52 0.52 0.52 0.54 0.57 0.60 0.66 0.74 0.81 0.78 0.72 0.70 0.73 0.75 0.69 0.62 0.56 0.63 0.98 1.40 1.14 0.79 0.45 0.49 0.76 1.08 1.18 0.98 0.86 0.85 0.78
0.35 0.33 0.37 0.42 0.48 0.51 0.54 0.57 0.61 0.62 0.60 0.66 0.68 0.69 0.75 0.88 0.83 0.71 0.72 0.71 0.78 0.79 0.71 0.54 0.48 0.63 1.01 1.36 1.12 0.57 0.48 0.57 0.88 1.31 1.35 1.25 1.00 0.78
0.39 0.40 0.41 0.45 0.52 0.57 0.60 0.63 0.66 0.65 0.67 0.72 0.73 0.74 0.77 0.88 0.89 0.80 0.79 0.82 0.76 0.71 0.68 0.59 0.58 0.71 0.97 1.28 0.99 0.59 0.50 0.52 0.59 0.68 0.98 1.51 1.99 1.80
0.47 0.49 0.49 0.52 0.57 0.63 0.67 0.68 0.67 0.63 0.65 0.73 0.75 0.75 0.79 0.84 0.79 0.81 0.82 0.84 0.87 0.82 0.78 0.75 0.69 0.72 0.76 0.83 0.87 0.69 0.55 0.51 0.52 0.58 0.65 0.74 0.98 1.22